SCP
1 1 1 1 0 0 0 0 0 0 0 0 0 0 0 0 0 0 0 0 1 1 1 1 1 1 1 2 2 2 2 1 1 1 1 1 1 0 0 0 0 0 0 0 0 0 0 0 0
1 1 1 1 0 0 0 0 0 0 0 0 0 0 0 0 0 0 0 0 1 1 1 1 1 1 1 2 2 2 2 1 1 1 1 1 1 1 0 1 0 0 0 0 0 0 0 0 0
1 1 1 0 0 0 0 0 0 0 0 0 0 0 0 0 0 0 0 1 1 1 2 2 1 1 1 2 2 2 2 1 1 1 1 1 1 1 1 1 1 0 0 0 0 0 0 0 0
1 1 0 0 0 0 0 0 0 0 0 0 0 0 0 0 0 0 1 1 1 2 2 2 1 2 2 2 2 2 1 1 1 1 1 1 1 1 1 1 1 0 0 0 0 0 0 0 0
1 1 0 0 0 0 0 0 0 0 0 0 0 1 1 0 1 1 1 1 1 2 2 1 1 1 2 2 2 2 1 1 1 1 1 1 1 1 1 1 1 0 0 0 0 0 0 0 0
1 0 0 0 0 0 0 0 0 0 0 0 0 1 1 1 1 1 1 1 1 1 1 1 1 1 1 1 1 1 2 1 1 1 1 1 1 1 1 1 1 1 1 1 1 1 1 1 0
1 0 0 0 0 0 0 0 0 0 0 0 0 1 1 1 1 1 1 1 1 1 1 1 1 1 1 1 1 1 1 1 1 1 1 1 1 1 1 1 1 1 1 1 1 1 1 1 1
0 0 0 0 0 0 0 0 0 0 1 0 0 1 1 1 1 1 1 1 1 1 1 1 1 1 1 1 1 1 1 1 1 1 1 1 1 1 1 1 1 1 1 1 1 1 1 1 1
0 0 0 0 1 1 0 0 0 1 1 1 1 1 1 1 1 1 1 1 1 1 1 1 1 1 1 1 1 1 1 1 1 1 1 1 1 1 1 1 1 1 1 1 1 1 1 1 1
0 0 0 0 1 1 0 0 0 1 1 1 1 1 1 1 0 1 1 0 0 0 0 1 1 0 0 1 1 1 1 1 1 1 1 1 1 1 1 1 1 1 1 1 1 1 1 1 1
0 1 0 1 1 1 0 0 0 1 1 1 1 1 1 1 0 0 0 0 0 0 0 0 0 0 0 0 1 1 2 2 2 1 1 1 1 1 1 1 1 1 1 1 1 1 1 1 1
1 1 1 1 1 1 0 0 1 1 1 1 1 1 1 1 0 0 0 0 0 0 0 0 0 0 0 0 1 1 1 1 1 1 1 1 1 1 1 1 1 1 1 1 1 1 1 1 1
1 1 1 1 1 1 1 1 1 1 1 1 1 1 0 0 0 0 0 0 0 0 0 0 0 0 0 0 0 1 1 1 1 1 1 1 1 1 1 1 1 1 1 1 1 1 1 1 1
1 1 1 1 1 0 1 1 1 1 1 1 1 0 0 0 0 0 0 0 0 0 0 0 0 0 0 0 0 0 1 1 1 1 1 1 1 1 1 1 1 1 1 1 1 1 1 1 1
1 1 1 1 1 1 0 1 1 1 1 1 1 0 0 0 0 0 0 0 0 0 0 0 0 0 0 0 0 0 0 0 0 0 0 0 1 1 1 1 1 1 1 2 2 1 1 1 1
0 0 1 1 1 1 0 1 1 1 1 1 1 0 0 0 0 0 0 0 0 0 0 0 0 0 0 0 0 0 0 0 0 0 0 0 0 1 1 1 1 1 1 1 2 2 1 1 1
0 0 0 1 1 1 0 1 2 1 1 1 1 0 0 0 0 0 0 0 0 0 0 0 0 0 0 0 0 0 0 0 0 0 0 0 1 1 1 1 1 1 1 1 1 1 2 1 1
0 0 0 1 1 1 0 1 2 1 1 1 1 0 0 0 0 0 0 0 0 0 0 0 0 0 0 0 0 0 0 0 0 0 0 0 0 0 1 1 1 1 1 1 1 1 1 1 1
0 0 0 0 1 0 0 1 1 1 1 1 0 0 0 0 0 0 0 0 0 0 0 0 0 0 0 0 0 0 0 0 0 0 0 0 0 0 0 1 1 1 1 1 1 1 1 1 1
0 0 0 0 0 0 0 0 1 1 1 1 0 0 0 0 0 0 0 0 0 0 0 0 0 0 0 0 0 0 0 0 0 0 0 0 0 0 0 0 1 1 1 1 1 1 1 1 1
0 0 0 0 0 0 0 0 0 0 0 0 0 0 0 0 0 0 0 0 0 0 0 0 0 0 0 0 0 0 0 0 0 0 0 0 0 0 0 0 0 1 1 1 1 1 1 1 1
0 0 0 0 0 0 0 0 0 0 0 0 0 0 0 0 0 0 0 0 0 0 0 0 0 0 0 0 0 0 0 0 0 0 0 0 0 0 0 0 0 0 1 1 1 1 1 1 1
0 0 0 0 0 0 0 0 0 0 0 0 0 0 0 0 0 0 0 0 0 0 0 0 0 0 0 0 0 0 0 0 0 0 0 0 0 0 0 0 0 0 1 1 1 1 1 1 1
0 0 0 0 0 0 0 0 0 0 0 0 0 0 0 0 0 0 0 0 0 0 0 0 0 0 0 0 0 0 0 0 0 0 0 0 0 0 0 0 0 0 0 1 1 1 1 1 1
0 0 0 0 0 0 0 0 0 0 0 0 0 0 0 0 0 0 0 0 0 0 0 0 0 0 0 0 0 0 0 0 0 0 0 0 0 0 0 0 0 0 0 0 1 1 1 1 1
0 0 0 0 0 0 0 0 0 0 0 0 0 0 0 0 0 0 0 0 0 0 0 0 0 0 0 0 0 0 0 0 0 0 0 0 0 0 0 0 0 0 0 0 1 1 1 1 1
0 0 0 0 0 0 0 0 0 0 0 0 0 0 0 0 0 0 0 0 0 0 0 0 0 0 0 0 0 0 0 0 0 0 0 0 0 0 0 0 0 0 0 0 1 1 1 1 1
0 0 0 0 0 0 0 0 0 0 0 0 0 0 0 0 0 0 0 0 0 0 0 0 0 0 0 0 0 0 0 0 0 0 0 0 0 0 0 0 0 0 0 0 0 0 0 0 1
0 0 0 0 0 0 0 0 0 0 0 0 0 0 0 0 0 0 0 0 0 0 0 0 0 0 0 0 0 0 0 0 0 0 0 0 0 0 0 0 0 0 0 0 0 0 0 0 0
0 0 0 0 0 0 0 0 0 0 0 0 0 0 0 0 0 0 0 0 0 0 0 0 0 0 0 0 0 0 0 0 0 0 0 0 0 0 0 0 0 0 0 0 0 0 0 0 0
Wind_Speed
9 8 5 2 2 2 4 6 7 7 6 8 9 9 13 13 9 7 1 5 7 10 11 10 8 6 4 3 2 1 1 1 1 1 2 2 1 1 1 2 2 2 2 2 3 3 3 3 4
8 6 4 3 2 1 4 5 6 8 6 5 7 11 12 11 10 7 4 5 7 10 10 10 8 6 4 2 1 1 1 1 2 2 3 3 3 3 3 3 3 3 3 2 2 2 3 3 3
10 7 4 3 1 3 4 5 5 7 7 6 8 11 9 7 7 5 3 5 8 10 11 10 9 7 5 4 3 2 2 2 2 3 3 4 4 4 4 5 4 4 4 3 3 2 3 3 3
5 4 4 2 4 8 7 5 5 6 8 8 8 10 8 7 5 5 6 7 8 9 10 9 9 8 6 5 4 3 3 2 3 3 4 4 5 5 6 6 6 5 5 5 4 3 3 3 3
4 3 2 2 4 7 7 7 7 7 8 9 10 10 8 7 7 8 8 8 8 7 7 8 8 6 5 4 4 3 3 3 3 3 4 5 6 6 7 7 7 6 6 6 5 4 4 4 4
2 2 1 1 4 6 7 6 7 8 8 8 8 8 6 6 7 6 7 7 7 6 6 6 6 4 3 3 2 2 2 3 4 4 4 5 6 7 8 8 8 8 8 7 6 6 5 6 5
4 4 3 1 4 5 5 6 8 7 8 8 6 7 6 7 5 4 5 5 5 5 4 3 2 2 3 2 1 0 1 3 4 5 5 5 6 8 9 10 10 9 9 8 8 7 7 7 6
4 4 6 4 4 5 4 5 7 7 8 8 7 6 6 5 4 4 4 4 4 4 3 2 2 2 1 1 2 2 3 4 5 5 5 6 7 9 11 11 11 11 10 9 9 8 8 8 8
6 3 2 3 3 5 4 4 6 6 9 10 10 10 8 5 4 4 3 3 3 4 3 2 2 1 1 2 1 2 5 5 6 5 7 6 4 5 6 9 10 11 11 10 10 10 10 9 9
5 1 1 3 4 5 4 4 4 4 6 7 9 8 6 4 3 3 4 4 5 5 5 4 4 3 2 2 1 2 2 2 4 3 4 3 4 4 6 5 9 10 11 10 11 11 10 8 6
3 0 2 4 6 4 4 3 1 2 3 5 7 6 5 3 3 3 4 4 4 4 5 5 5 5 4 2 1 1 2 2 3 4 4 4 3 3 4 2 4 5 7 6 7 7 6 7 6
3 2 2 3 4 1 2 2 2 4 5 6 7 5 4 3 4 3 3 3 3 5 4 4 6 6 6 5 3 3 2 2 2 3 4 3 2 3 3 3 2 3 3 4 4 4 6 8 8
1 2 1 3 2 1 1 2 2 5 5 6 5 3 2 3 3 3 3 5 5 5 5 6 6 7 6 5 3 4 3 2 3 2 3 4 3 3 3 3 3 3 3 4 4 4 5 5 4
3 3 4 4 4 3 3 4 5 6 6 5 4 3 2 3 2 3 5 6 6 6 6 5 5 5 6 5 5 4 4 4 3 3 4 4 3 3 3 4 3 4 3 4 4 5 4 3 2
3 6 6 5 5 4 4 6 7 9 8 6 5 3 2 1 1 2 5 6 6 6 6 6 5 6 6 6 6 5 4 4 3 3 4 5 4 3 3 3 3 3 4 5 3 4 2 3 3
7 7 6 6 5 3 4 5 7 10 8 6 5 3 3 2 2 2 5 5 6 6 6 5 6 6 6 5 5 4 4 4 4 4 4 5 5 5 3 2 2 3 3 3 3 3 2 2 2
5 6 6 3 7 4 6 5 8 9 7 6 5 4 4 4 2 3 5 5 5 5 5 5 5 5 5 5 4 4 4 4 4 3 3 4 5 6 4 2 2 3 2 2 3 3 2 2 2
3 5 6 3 4 6 7 6 7 9 7 5 4 4 4 2 2 4 4 3 3 4 5 5 4 4 5 4 4 4 4 4 4 3 3 4 4 5 4 3 3 2 2 2 2 2 3 3 3
5 8 9 1 4 3 8 7 4 9 7 5 5 4 3 1 3 5 3 2 3 4 5 5 4 4 4 3 3 4 4 4 4 3 4 4 4 4 4 4 3 3 2 3 3 2 3 3 2
10 9 7 3 3 3 8 9 4 6 6 3 3 3 2 2 2 4 3 3 4 4 4 5 5 5 3 2 3 3 4 3 3 3 4 4 4 4 5 4 3 3 2 3 3 2 2 2 3
8 4 5 7 6 8 9 9 4 8 6 4 2 2 3 2 3 4 4 3 4 4 5 6 5 5 5 5 3 4 4 3 4 4 3 4 4 4 3 4 4 3 2 2 3 3 3 3 3
5 5 5 8 9 7 4 4 3 9 7 6 4 3 1 2 2 2 3 4 4 4 5 5 6 6 6 5 4 5 4 4 5 4 4 5 4 3 3 3 4 3 2 2 3 3 2 3 3
3 3 6 8 9 9 7 6 4 7 4 5 4 2 2 2 2 2 2 3 3 4 4 4 5 5 5 5 5 4 3 3 4 4 5 5 4 4 4 3 3 3 2 3 2 2 3 2 3
3 6 9 9 7 8 3 2 3 4 6 5 4 3 3 3 2 1 2 3 3 3 3 3 3 4 4 5 5 4 4 5 5 5 5 4 3 3 4 4 3 3 2 2 2 2 3 3 3
6 7 5 5 6 3 5 1 4 9 7 5 4 3 3 3 1 2 3 3 2 2 2 3 4 4 4 5 5 5 5 5 5 5 5 5 4 3 4 4 3 3 2 2 2 2 3 3 3
5 6 6 6 4 1 4 2 7 8 6 4 3 2 1 1 2 2 2 2 1 1 2 3 3 3 4 4 5 5 5 4 4 5 4 4 4 4 5 4 4 3 3 3 2 2 3 3 3
5 4 3 5 8 6 3 7 9 6 6 4 3 2 2 2 2 2 2 1 1 1 2 2 3 3 3 4 4 4 5 5 5 5 4 4 4 5 5 5 4 3 3 3 2 2 3 2 3
5 7 4 4 5 5 1 4 6 5 3 2 2 3 3 3 2 2 2 1 1 1 0 1 2 2 3 4 4 4 4 5 4 4 5 5 5 5 5 5 4 3 3 2 2 2 3 2 3
6 6 4 4 4 4 3 4 6 5 4 2 1 2 3 3 2 2 2 1 1 0 1 1 1 2 3 4 4 5 4 4 4 4 4 5 5 6 5 5 4 4 3 2 2 3 2 2 2
3 5 4 4 3 2 2 3 4 5 2 0 1 1 3 4 3 3 2 1 1 0 1 2 2 2 2 3 4 5 4 4 5 5 5 6 6 6 6 5 4 4 4 3 3 3 3 2 2
Wind_Direction
197 208 205 222 241 240 54 48 48 37 34 31 33 55 67 54 44 75 23 25 68 97 110 111 102 97 98 103 103 86 14 333 309 286 271 270 253 259 278 287 300 313 331 342 350 354 3 13 15
222 208 220 234 256 72 63 55 51 49 42 44 53 61 66 61 53 75 41 18 63 82 90 97 97 85 76 67 51 7 323 305 290 280 278 276 263 259 261 267 275 282 289 298 315 326 337 351 3
242 231 241 236 302 70 77 63 59 61 45 45 64 58 52 43 43 54 34 53 69 76 80 83 83 76 65 49 31 7 340 308 286 276 277 276 269 265 265 265 266 270 275 276 281 292 302 317 335
227 235 253 266 55 64 69 61 54 67 51 46 71 73 69 47 45 47 46 54 68 79 87 84 77 71 60 47 32 10 351 326 300 277 269 267 266 265 265 266 263 264 267 266 266 265 278 287 298
229 241 295 324 78 72 62 48 52 58 58 52 70 88 82 61 58 52 51 51 58 67 86 92 90 84 73 57 35 16 353 334 316 298 276 266 266 266 267 265 261 260 261 262 259 252 261 267 271
258 261 273 301 86 80 67 50 57 63 60 54 76 94 85 75 64 56 56 54 57 61 70 93 108 109 107 96 66 27 353 329 313 303 298 281 272 268 267 263 260 256 256 256 254 247 248 255 259
260 271 272 116 94 81 64 44 45 56 56 42 49 95 103 80 72 69 70 69 61 59 62 70 95 123 140 130 120 212 296 284 281 281 281 280 275 266 262 258 255 253 253 252 249 245 244 248 251
271 290 330 18 83 95 79 68 54 47 62 47 36 84 99 92 106 95 84 86 79 68 54 49 46 36 18 178 170 226 248 256 261 264 267 267 266 261 255 253 249 247 249 249 247 244 242 242 245
262 279 335 14 50 104 111 98 85 79 80 73 64 71 90 106 112 102 96 83 66 50 35 16 6 12 277 275 212 234 252 247 253 256 256 259 259 258 249 245 243 240 241 243 244 241 240 240 240
234 318 1 40 48 97 107 89 115 123 106 100 97 98 111 120 92 60 47 37 32 28 19 3 353 338 314 310 322 240 258 228 238 244 251 240 243 251 260 265 248 241 239 240 240 240 238 235 237
251 120 55 60 60 87 107 107 100 102 95 99 112 119 118 111 90 57 42 38 30 32 17 353 354 333 333 322 312 284 262 238 239 238 240 241 244 243 248 246 248 239 239 235 232 228 229 227 228
256 47 41 85 76 93 112 115 81 57 76 86 98 108 114 94 66 55 34 22 28 40 6 359 359 347 347 347 341 293 269 254 253 240 241 233 232 237 237 224 220 218 225 230 230 217 223 230 236
194 127 127 103 147 162 139 146 125 116 110 106 117 135 117 70 39 31 30 17 19 26 5 17 5 354 343 337 316 318 316 308 288 264 255 244 231 236 241 235 220 219 222 225 222 222 236 239 245
104 183 181 177 178 182 206 189 188 158 157 156 168 173 129 79 12 354 25 14 12 13 7 21 360 353 341 341 338 329 324 310 303 298 283 273 249 235 229 235 232 226 224 227 218 226 224 237 246
191 218 202 191 201 196 233 237 198 149 170 181 199 189 126 89 323 9 33 10 13 9 5 6 349 3 353 346 338 325 317 317 321 317 314 309 298 275 255 237 233 232 221 222 217 230 229 222 228
227 239 233 194 210 174 239 279 135 145 180 194 207 196 159 195 257 44 44 17 15 3 359 0 0 359 346 337 325 317 320 328 325 319 316 318 318 315 304 275 254 245 236 221 211 212 232 234 227
237 267 281 206 196 194 239 281 142 161 190 206 206 209 199 208 181 72 52 27 13 356 354 7 7 352 344 340 331 330 330 329 320 322 327 329 329 318 313 306 285 272 252 229 227 211 198 231 239
264 281 279 231 184 232 256 270 166 172 194 222 220 222 218 206 106 85 62 37 7 359 4 11 359 359 355 356 344 343 335 331 322 323 325 330 320 314 316 299 291 287 273 252 236 222 204 213 217
270 267 274 220 143 270 288 289 198 171 180 211 231 231 228 133 95 97 76 46 17 21 18 359 353 0 5 5 339 337 327 323 315 317 332 331 320 318 304 296 295 287 270 263 250 239 220 218 201
248 266 299 4 96 299 292 288 244 166 172 190 265 294 301 81 59 92 78 50 31 30 14 349 0 349 3 357 336 323 322 316 315 334 334 331 324 319 310 303 286 272 258 259 259 241 218 229 197
278 308 337 328 317 273 270 269 217 133 142 154 189 289 322 32 26 31 38 30 30 34 16 357 355 354 9 357 352 340 334 326 339 337 332 324 315 310 309 303 297 285 266 246 245 240 224 219 219
300 21 338 310 295 289 273 297 165 139 156 166 174 196 184 74 55 49 34 31 18 35 28 358 358 5 8 356 356 344 334 337 328 324 318 318 313 315 312 297 290 286 280 263 246 237 235 217 222
352 352 294 281 280 283 258 258 134 138 143 132 130 143 119 102 78 52 51 50 20 37 28 358 360 4 3 342 327 318 337 329 318 320 319 322 320 325 322 314 303 294 286 276 263 253 243 226 220
302 264 253 248 256 261 234 273 105 102 79 82 104 123 122 112 107 101 77 74 46 41 20 357 356 1 343 330 329 339 343 334 328 329 328 326 321 320 329 321 308 300 288 280 274 256 248 241 237
245 271 269 236 219 213 112 185 83 88 75 62 57 69 89 108 105 82 66 56 44 20 7 349 3 356 345 338 336 340 342 338 338 335 329 327 324 322 321 315 305 296 290 285 277 258 249 241 237
266 282 299 311 311 27 162 159 101 100 96 91 101 98 103 132 111 87 80 75 50 360 12 8 358 338 339 337 339 339 348 348 335 331 330 329 322 313 314 314 307 305 296 286 277 264 251 244 235
291 280 335 316 292 282 183 123 120 128 137 144 151 154 183 142 125 125 111 79 43 24 28 12 345 343 346 341 336 351 348 341 340 337 335 329 323 321 329 317 311 303 297 287 279 268 262 252 243
287 324 307 274 306 302 207 131 125 135 120 127 164 170 160 143 144 131 126 118 53 32 13 312 308 331 352 347 345 353 343 340 336 333 341 335 330 328 322 323 320 316 308 299 291 279 257 251 251
201 224 243 278 284 302 336 62 73 85 69 25 15 106 120 129 136 129 132 144 162 259 298 305 338 23 17 356 348 340 336 332 334 343 342 337 335 331 331 329 337 332 323 317 311 301 279 253 252
282 283 282 275 300 273 278 99 97 103 108 105 12 77 121 129 137 146 149 173 180 15 345 340 9 34 25 360 340 328 327 341 351 350 349 347 344 339 337 339 350 344 342 346 333 320 312 277 266